Theta_e
341 341 341 342 343 342 342 343 345 345 346 348 350 350 351 352 354 357 357 360 364 365 366 366 365 365 364 363 364 364 363 363 363 360 359 360 358 358 357 355 354 356 353 352 354 352 354 353 351 351 353 354 357 360 365 366 366 361 366 368 366 365 365
340 340 340 342 343 343 343 345 347 347 348 348 350 352 352 352 355 356 358 362 364 366 366 366 366 364 364 365 364 365 365 364 363 363 362 362 362 360 358 357 355 356 357 355 354 356 354 350 351 351 352 354 355 358 359 362 365 364 363 368 364 363 364
340 341 341 342 342 343 345 345 347 347 349 348 349 352 352 354 356 359 359 360 364 366 367 367 366 364 366 365 364 365 364 363 362 360 359 357 360 358 359 359 356 354 354 356 357 353 355 351 352 352 353 354 353 354 356 359 359 358 361 367 366 362 364
341 342 342 344 344 347 347 347 348 347 347 348 350 352 353 355 356 360 360 360 362 363 363 365 365 363 363 363 362 363 363 363 361 358 358 358 357 358 359 359 358 357 354 354 355 354 352 352 350 351 353 353 354 355 355 356 355 356 357 364 363 361 362
342 344 344 344 344 346 347 348 348 349 348 347 351 352 353 355 357 360 360 361 363 364 365 364 363 362 361 361 359 358 359 359 360 358 359 359 360 359 357 356 356 356 355 354 356 356 358 356 351 351 351 355 354 355 356 358 356 357 357 359 360 358 354
342 343 345 344 344 344 346 348 349 350 351 349 350 351 352 356 358 359 361 362 366 365 363 363 361 362 362 362 359 357 357 358 360 363 359 360 361 357 356 357 356 355 353 354 355 356 355 356 354 352 351 351 351 351 354 355 355 356 357 357 358 356 352
343 344 345 346 344 346 346 347 347 348 351 352 353 354 356 357 358 358 361 361 363 363 361 359 361 361 363 364 361 357 356 354 356 358 360 358 359 358 355 355 356 354 357 361 358 360 356 354 357 356 352 352 354 352 354 356 357 357 358 358 358 356 357
346 346 347 347 346 346 346 348 348 347 350 352 353 354 355 356 359 359 360 360 362 363 361 359 360 361 364 364 360 357 355 355 354 358 358 357 357 358 357 356 358 359 363 361 361 358 356 356 356 356 356 354 353 354 354 355 359 358 356 355 356 357 353
348 348 347 346 347 347 348 349 349 349 352 354 354 355 356 358 359 359 362 362 361 362 361 361 362 364 365 362 361 358 354 355 355 357 356 356 356 354 358 352 358 364 359 361 362 359 357 356 356 358 356 356 354 354 354 356 357 358 357 355 356 356 355
347 348 348 348 350 350 351 350 351 353 353 355 354 356 357 358 360 359 361 362 362 361 361 362 364 364 363 361 357 356 354 355 355 355 357 356 356 356 360 357 357 360 360 359 360 356 357 356 355 355 357 358 356 355 356 355 355 356 357 356 356 355 357
350 350 349 349 350 351 352 351 351 354 354 355 355 357 358 359 360 360 362 362 361 361 363 363 363 363 363 362 359 356 355 354 356 356 357 357 356 356 356 355 357 359 359 359 358 358 356 355 356 356 357 354 355 356 356 355 355 356 355 355 356 357 355
349 350 353 354 353 353 351 353 354 355 354 355 356 358 358 361 361 361 363 362 363 361 363 362 362 363 362 361 359 357 356 355 356 355 355 358 363 358 355 355 356 355 357 360 360 359 357 355 355 354 355 355 355 356 356 357 356 356 357 356 356 356 356
350 352 353 353 355 356 356 355 354 355 356 357 357 358 360 361 361 362 363 363 363 363 364 363 362 362 361 360 358 356 355 356 356 356 358 360 361 360 358 357 357 356 356 358 359 358 357 356 356 356 354 354 353 355 356 356 356 357 358 357 356 356 356
350 352 354 354 354 353 354 354 355 355 355 356 357 359 360 360 361 361 362 362 363 363 361 360 361 361 359 356 355 356 356 356 357 359 359 358 358 359 358 358 356 356 359 359 358 356 356 355 356 356 358 355 354 356 357 357 357 359 358 357 356 354 354
347 349 351 352 354 354 353 354 354 354 355 356 357 357 358 359 360 361 362 362 360 360 358 359 359 358 357 355 355 356 356 359 358 360 361 361 360 358 357 355 355 356 357 358 358 357 357 356 355 355 354 355 355 355 354 355 355 357 357 357 356 356 354
346 348 349 348 351 353 354 354 355 356 357 357 356 357 357 357 358 359 358 357 355 357 359 360 358 356 356 356 355 357 360 358 357 359 360 358 356 357 358 357 356 356 357 358 359 358 358 358 357 356 354 354 355 355 354 356 356 358 358 357 356 356 353
348 349 349 352 352 352 353 354 356 356 357 357 357 358 357 356 355 355 356 356 357 358 360 359 357 356 355 357 357 357 358 357 357 358 356 356 356 358 357 356 356 357 357 358 358 357 358 357 356 355 356 355 353 353 352 350 351 354 346 347 353 357 355
347 348 349 351 352 353 353 354 355 356 357 358 358 357 356 355 356 355 356 357 357 357 358 357 357 356 356 354 357 359 358 357 357 361 361 361 359 358 358 357 357 357 357 357 356 356 357 356 356 355 355 355 354 354 352 353 358 339 342 344 344 350 354
344 344 347 350 351 352 352 354 356 357 357 358 358 356 355 357 355 355 355 355 356 357 356 355 355 356 357 357 359 359 360 361 360 359 357 355 352 353 358 355 355 356 356 355 354 355 355 356 356 354 353 353 353 352 353 354 353 344 341 341 340 341 350
343 343 345 347 350 353 354 355 355 357 358 358 358 358 358 357 356 356 357 357 358 357 356 356 355 357 357 358 359 359 356 352 348 349 347 349 351 354 355 354 356 357 357 356 356 354 354 354 355 354 354 354 354 354 354 355 355 341 339 337 337 337 345
343 344 345 347 350 352 355 356 356 357 357 358 357 356 356 356 357 357 357 357 357 357 356 356 357 358 359 358 358 358 356 351 347 347 346 346 348 351 354 355 355 356 357 357 356 355 355 355 354 354 355 354 354 354 353 353 345 337 335 333 332 333 342
344 344 345 348 350 353 354 354 355 356 357 359 358 356 356 355 356 355 354 357 355 355 356 357 358 357 357 356 354 355 356 351 350 349 350 349 350 352 353 353 354 355 356 355 356 356 356 356 355 355 355 355 356 356 356 357 339 334 334 331 330 334 349
342 343 345 348 350 351 353 355 356 358 358 358 359 357 355 355 355 355 354 355 355 355 355 356 353 352 355 351 352 352 355 354 352 352 353 353 353 353 353 353 355 356 356 354 355 355 355 356 355 356 356 356 356 356 355 356 341 330 331 329 329 337 351
343 346 346 348 351 352 353 354 355 356 355 357 358 358 357 358 356 355 354 354 354 354 354 354 350 352 352 353 354 353 354 356 356 355 354 354 353 353 354 356 356 356 356 354 354 354 354 354 354 356 356 355 355 355 355 355 345 326 326 326 327 340 352
343 345 348 350 350 351 351 353 354 354 357 357 357 358 358 357 356 354 354 354 354 355 354 354 356 356 356 356 357 357 357 356 356 356 355 354 353 354 354 354 354 355 356 355 355 354 355 353 353 353 354 354 355 351 352 353 348 324 325 322 322 336 350
343 344 345 347 350 353 356 358 356 355 355 357 359 360 358 358 356 356 355 354 355 355 356 356 355 356 356 356 357 356 355 355 355 355 354 354 353 354 354 354 354 353 353 353 352 352 352 352 354 354 353 354 353 353 354 354 356 348 320 322 321 324 345
345 345 346 349 352 355 354 354 354 355 356 357 358 358 358 356 356 355 356 355 355 354 356 357 356 355 354 355 354 353 353 355 355 355 356 356 354 354 354 354 354 353 353 351 352 351 351 351 351 351 350 351 350 350 350 351 352 352 320 320 321 322 331
345 346 350 354 354 352 352 353 356 357 355 357 358 357 358 357 356 356 355 353 352 355 358 358 356 356 355 355 355 354 355 355 355 355 354 355 354 353 352 353 354 353 352 351 350 350 348 348 346 347 347 350 350 352 351 349 346 351 328 321 318 319 323
348 348 349 351 352 353 353 354 354 354 356 355 355 355 355 357 355 354 354 353 356 357 358 358 357 358 356 355 354 354 354 354 354 354 353 352 353 352 351 352 351 351 350 348 348 347 347 347 349 349 348 347 349 350 350 350 349 346 348 321 315 315 320
350 350 348 349 350 349 351 353 356 357 358 356 357 358 358 358 356 356 354 355 358 358 358 357 356 357 355 355 353 353 352 353 351 350 351 351 351 351 349 348 349 350 350 350 349 347 347 346 347 347 345 345 345 348 347 347 348 342 337 331 316 314 313
346 346 346 347 347 351 352 354 356 356 356 357 358 359 360 359 357 355 355 357 359 359 358 356 354 353 353 352 351 351 349 349 349 348 349 349 348 348 347 348 349 347 349 349 347 346 345 344 344 344 344 344 345 346 346 347 348 346 336 329 326 319 317
346 347 347 350 352 354 358 358 358 357 355 357 359 358 360 357 355 355 356 358 360 359 357 356 355 354 353 352 351 348 348 347 346 347 349 349 348 348 347 347 346 345 346 344 344 344 344 342 341 341 343 343 344 343 344 345 346 345 343 338 336 331 320
347 347 348 350 357 357 355 352 350 350 352 352 354 355 355 356 353 356 357 358 355 356 358 357 355 354 352 351 349 349 349 348 345 345 345 347 346 345 346 347 347 346 346 346 343 343 342 343 343 341 339 340 342 343 344 345 344 343 346 344 340 341 339
349 348 352 356 356 353 351 349 348 348 350 352 353 353 352 353 352 353 353 351 351 354 355 354 353 350 349 346 347 348 347 347 343 345 344 345 346 343 343 344 345 344 346 345 345 344 343 343 342 340 340 338 340 341 341 341 342 342 342 339 339 338 338
355 356 355 353 354 352 351 350 350 353 352 352 354 355 355 354 352 352 353 353 355 356 353 351 351 350 346 346 346 347 348 345 346 344 344 345 348 345 346 345 344 344 346 346 344 342 340 341 340 340 341 340 339 338 339 340 340 339 315 328 311 324 330
355 353 354 354 354 354 354 354 354 354 353 354 355 354 355 356 355 355 353 355 356 356 354 353 351 350 347 347 346 346 345 344 344 346 345 344 343 345 342 323 315 326 342 342 325 312 307 310 334 332 338 339 341 342 336 336 329 307 301 299 300 299 300
354 354 353 354 354 354 354 355 356 354 354 353 354 354 354 354 354 356 356 358 357 356 357 356 352 350 349 349 349 346 346 345 345 347 349 348 344 345 345 344 329 302 304 314 323 311 301 299 302 306 313 329 338 328 312 312 304 298 296 296 296 295 295
354 353 352 353 354 355 355 355 354 354 353 354 353 353 353 352 354 356 354 356 357 358 358 356 353 350 349 349 348 350 350 348 349 348 347 347 347 348 344 343 344 345 305 300 312 306 298 299 298 298 303 306 312 330 329 309 300 298 298 296 295 295 295
Wind_Speed
13 14 14 13 13 14 14 14 15 14 14 13 14 15 14 13 12 12 12 13 13 13 13 13 13 11 11 10 10 9 9 8 7 7 7 8 7 7 7 7 8 8 7 8 8 9 8 8 8 8 8 9 10 9 9 8 8 8 7 6 6 6 6
10 12 13 13 14 14 15 14 14 13 13 13 13 13 12 13 13 13 12 14 14 14 14 13 13 12 12 11 10 11 10 10 8 6 6 6 6 6 7 7 7 7 7 7 6 7 8 8 8 8 8 9 10 9 9 10 9 9 8 8 8 7 7
9 10 12 13 13 13 15 14 14 13 13 13 12 12 13 14 14 15 14 14 14 13 11 12 12 11 11 11 10 11 11 10 9 9 9 8 8 9 8 7 6 7 7 7 7 7 7 8 8 8 9 9 9 10 9 9 10 10 9 8 8 8 8
8 10 11 12 13 13 14 14 15 14 13 13 13 14 15 16 15 14 12 11 12 12 11 10 10 10 10 11 11 10 10 10 10 9 10 9 9 8 7 7 6 7 7 7 7 7 7 7 8 8 9 9 8 8 10 10 10 11 11 10 8 9 8
8 9 9 10 11 11 11 12 13 13 13 14 14 14 15 15 13 11 12 13 13 13 11 11 9 10 9 10 7 7 8 9 9 8 8 8 8 8 7 7 7 8 7 7 8 7 7 7 8 8 10 9 10 9 9 9 10 10 10 11 10 9 10
8 8 8 9 9 10 11 12 13 13 13 13 13 14 13 13 11 13 13 13 11 14 14 12 12 11 10 9 9 8 8 7 6 7 7 7 7 8 9 8 8 7 9 9 8 10 9 8 9 9 10 10 11 11 11 11 10 10 10 10 10 10 11
7 7 7 8 9 9 10 11 12 12 11 11 11 11 11 11 13 13 13 13 14 15 14 13 12 11 10 9 9 10 9 8 8 9 7 8 8 8 9 9 8 8 1 5 3 3 6 10 10 10 11 10 10 11 10 9 9 9 9 9 10 10 10
7 6 6 7 7 8 8 9 10 11 10 9 10 10 11 11 11 13 13 12 13 12 11 12 13 12 11 10 9 9 8 7 7 8 8 8 9 9 5 6 6 6 2 4 2 2 2 4 6 9 11 12 12 11 11 10 10 10 9 10 10 11 10
7 6 6 7 7 7 6 7 8 8 10 10 10 10 11 11 11 11 11 11 12 12 12 12 11 10 8 7 7 8 7 6 7 7 8 8 7 9 10 8 7 4 5 5 5 5 5 6 8 9 12 11 12 12 11 11 11 10 10 9 10 11 11
7 6 6 6 6 6 5 6 6 6 8 9 9 10 11 10 10 11 10 11 11 13 12 11 10 9 9 8 8 9 8 7 7 7 7 7 2 3 4 8 7 6 8 7 8 9 9 10 10 9 7 12 12 12 11 11 11 10 10 11 11 11 10
6 6 6 7 7 7 6 6 7 7 8 8 9 9 10 10 10 10 11 11 11 11 12 12 10 9 9 9 10 10 9 9 8 7 6 7 8 10 12 8 6 6 9 9 9 9 8 9 10 10 8 10 13 12 12 12 12 11 11 11 10 11 11
7 6 6 7 7 7 7 6 6 6 7 8 8 9 9 9 10 10 10 10 10 11 12 11 9 8 8 8 9 9 9 9 7 7 8 8 7 9 7 7 8 9 8 9 9 8 8 9 10 10 10 12 13 14 13 12 12 12 12 12 11 11 11
7 7 7 7 7 7 6 6 7 6 7 7 7 8 8 9 9 9 9 10 10 10 9 9 9 8 8 8 8 8 10 9 8 7 5 5 5 6 5 7 10 11 10 9 8 7 8 8 10 10 11 11 12 14 12 13 13 12 12 12 11 11 11
9 8 7 7 7 8 7 7 6 6 6 6 6 7 7 7 8 8 9 9 9 9 9 8 8 9 9 9 10 10 9 9 9 8 6 6 7 7 7 6 7 7 7 7 8 9 10 11 11 11 10 11 12 11 12 11 12 12 12 12 12 12 12
10 9 9 9 8 7 7 7 6 7 7 6 7 7 7 7 7 7 7 8 9 8 9 8 9 11 10 10 9 9 7 6 7 8 8 7 8 7 7 7 6 6 6 7 7 8 9 10 11 11 12 11 10 8 8 9 13 12 11 12 13 12 12
10 9 9 10 9 8 7 7 7 7 7 7 8 8 8 7 7 7 7 7 7 8 8 9 9 10 10 9 9 8 7 8 7 8 8 5 7 8 7 7 7 7 7 7 7 7 6 8 9 10 11 11 10 10 8 7 7 10 11 11 11 12 11
10 10 10 9 9 8 8 7 7 7 7 7 7 8 7 6 7 6 6 6 7 7 7 8 8 9 10 9 9 8 7 7 6 6 8 7 7 6 6 6 6 7 7 7 7 7 7 7 8 9 8 9 10 9 9 9 7 4 6 8 8 10 11
11 10 10 9 9 8 8 7 7 7 7 7 7 7 7 7 6 6 6 6 6 5 6 6 7 7 8 7 6 6 6 7 7 6 6 5 5 5 5 5 7 6 6 6 6 7 7 8 8 7 7 8 9 9 9 9 2 5 6 5 5 6 9
11 11 10 10 9 9 8 7 7 7 7 7 7 7 7 7 6 6 6 6 6 6 6 5 5 6 6 7 6 5 5 5 5 4 1 1 4 6 5 6 6 6 6 7 7 7 8 8 8 8 8 9 9 10 11 11 10 5 3 3 3 3 6
11 11 11 9 9 8 8 7 7 7 7 7 8 8 7 6 6 6 7 6 7 7 6 5 5 4 5 5 5 5 4 2 1 2 5 5 5 5 8 6 6 6 6 6 6 7 8 8 8 8 8 8 9 9 9 10 10 11 10 9 8 7 6
11 11 10 10 9 9 8 8 8 8 8 8 8 8 7 7 6 7 7 7 7 7 6 5 4 4 4 3 3 2 4 6 6 5 4 5 5 5 5 6 5 5 5 5 6 7 7 6 7 7 8 9 9 8 8 8 10 11 11 11 10 9 7
12 11 11 9 10 9 9 9 8 8 8 8 8 7 7 7 7 6 6 5 6 5 4 4 4 3 3 3 3 2 3 5 7 7 6 6 6 6 6 5 5 5 5 5 5 5 5 6 7 7 8 8 7 7 7 5 4 9 9 8 9 7 6
12 11 10 11 11 11 10 10 9 9 9 8 7 7 7 7 7 7 7 6 5 5 5 4 4 3 3 5 5 4 4 4 6 7 7 7 7 6 6 6 6 6 5 6 6 6 6 6 6 6 7 7 7 6 6 5 5 6 5 5 5 4 7
12 11 12 12 12 11 11 10 10 9 9 9 9 8 8 8 7 7 7 6 6 5 5 5 6 5 4 5 6 6 5 4 4 5 6 6 6 6 6 5 5 5 5 5 5 5 5 4 4 5 6 6 7 6 5 6 5 7 6 6 6 7 8
13 12 12 12 13 12 12 10 10 11 10 10 10 9 8 9 9 8 7 6 6 6 6 5 5 5 5 5 5 4 4 3 4 4 5 6 5 5 4 4 3 3 3 3 3 3 3 4 4 4 4 4 5 3 6 6 4 9 8 7 8 5 6
14 13 13 13 12 12 12 11 11 10 10 10 10 9 8 8 8 7 7 7 6 6 5 5 5 4 3 3 3 3 3 3 4 4 4 4 4 3 3 3 4 4 4 3 3 3 3 4 4 5 4 4 5 5 5 5 4 5 7 6 6 6 5
13 13 14 14 14 14 12 10 10 10 10 9 9 8 7 7 7 7 6 6 6 6 7 7 6 5 5 5 6 6 6 5 5 4 4 4 5 4 4 4 4 4 4 4 3 3 3 3 2 2 1 2 3 3 3 3 3 6 8 6 5 4 5
14 13 13 14 14 12 11 10 11 11 11 9 9 8 7 7 7 7 7 6 6 8 8 8 8 8 8 8 7 7 7 6 5 5 4 4 4 4 3 2 2 3 2 2 2 3 3 4 3 3 2 2 1 2 3 2 0 1 5 3 2 1 4
14 14 14 14 13 12 12 11 11 11 10 9 9 8 7 7 8 7 6 6 9 9 9 9 9 10 9 9 8 8 7 6 6 5 4 3 3 4 5 3 3 3 3 3 4 4 4 4 3 3 3 3 2 2 1 2 3 3 2 7 5 5 4
14 14 14 13 14 13 13 11 11 10 9 8 7 6 6 7 7 7 7 9 7 8 8 8 8 8 9 8 8 7 7 6 5 5 5 5 4 4 4 5 4 4 4 4 4 4 4 3 3 2 2 2 2 0 1 1 1 8 7 4 6 6 6
15 14 14 13 14 13 12 12 13 11 10 8 8 6 5 5 7 8 8 7 6 7 8 7 7 7 7 7 7 6 6 5 5 5 5 6 6 5 6 6 5 4 4 4 3 3 2 2 2 1 0 2 1 1 0 1 1 3 5 5 5 3 3
15 14 14 14 13 12 12 12 13 12 11 9 8 7 6 7 8 9 8 6 6 6 7 7 7 6 6 6 5 6 7 7 6 5 4 4 4 4 3 4 5 4 3 3 3 2 2 2 1 1 1 1 2 2 2 1 1 3 3 3 4 4 6
15 14 14 14 13 13 12 12 12 12 12 11 9 8 7 7 8 8 7 6 6 7 7 7 7 6 5 5 6 5 3 3 3 4 5 3 3 4 3 2 2 2 2 2 2 2 2 2 2 3 2 0 1 2 1 1 2 2 3 2 2 3 4
14 13 12 13 13 12 11 10 11 12 11 10 8 7 8 7 8 7 6 7 8 7 6 6 4 5 5 5 5 4 4 5 4 3 2 3 3 3 2 0 1 1 1 1 2 2 1 1 2 3 4 3 2 2 4 3 3 2 2 1 2 2 3
13 13 13 14 12 11 10 10 11 12 12 10 8 8 8 8 8 8 8 7 7 6 6 6 6 4 5 4 4 5 2 2 2 3 3 2 4 3 3 4 5 5 3 5 5 5 5 4 3 1 1 2 3 4 5 5 2 4 6 4 4 3 4
13 14 14 13 12 12 12 12 12 12 11 9 8 9 9 9 8 7 8 7 6 5 6 5 4 5 4 4 3 4 2 2 2 4 1 2 2 4 6 3 2 3 4 3 5 5 6 5 3 5 5 5 3 4 5 4 3 4 6 3 2 2 4
14 13 13 13 14 14 13 13 13 13 11 10 9 9 9 8 8 7 7 6 5 5 5 4 4 3 3 2 3 5 4 3 3 2 2 2 2 3 3 2 5 3 2 4 4 3 2 2 2 2 4 4 3 5 8 8 7 6 4 1 1 4 5
13 14 14 13 13 14 15 14 13 12 11 9 9 8 8 8 7 6 6 6 5 4 4 4 3 3 3 3 3 3 3 4 3 3 2 1 1 2 2 3 1 4 4 4 3 6 3 1 1 1 2 2 3 3 4 6 7 4 1 1 3 5 5
Wind_Direction
196 193 193 191 190 195 195 191 190 190 189 189 192 195 192 190 184 175 180 176 178 176 177 177 175 175 182 188 193 192 198 204 206 208 212 222 229 228 216 218 215 222 225 224 215 221 223 224 237 227 216 205 209 205 209 209 212 215 215 214 227 242 229
190 189 191 189 186 191 194 190 188 186 185 189 192 191 188 188 179 179 179 177 179 177 175 178 177 179 181 187 188 190 191 192 199 208 217 215 218 225 232 222 233 222 227 243 243 227 224 218 224 226 221 206 213 213 210 214 217 221 217 203 217 224 226
182 185 186 186 184 187 189 188 189 187 185 190 188 183 185 184 182 180 180 180 179 177 173 177 181 183 186 187 186 189 191 193 192 199 213 217 209 219 217 226 227 234 230 225 239 244 221 228 218 221 220 222 217 208 218 220 220 221 220 211 212 217 219
173 182 185 182 184 180 185 186 188 189 190 190 187 182 187 188 188 181 180 174 172 172 175 177 184 192 190 191 196 195 199 199 202 204 213 221 226 212 213 208 219 229 227 232 233 232 242 230 220 212 221 229 228 226 216 219 220 218 219 219 222 222 223
160 172 176 179 184 176 182 185 188 191 193 193 187 186 190 191 186 171 172 176 173 157 156 177 187 195 195 190 195 206 215 215 209 212 216 223 227 233 219 215 210 215 226 230 225 227 227 243 238 214 213 222 227 222 227 219 225 223 221 220 225 225 231
152 164 168 174 180 178 181 185 189 190 191 191 185 187 191 187 178 173 176 177 164 156 172 175 181 185 190 187 185 190 198 207 222 215 218 218 224 225 223 215 219 224 226 222 219 225 216 229 236 240 225 214 221 228 220 219 219 222 220 221 226 228 231
136 152 160 170 173 173 183 186 192 191 189 188 183 185 185 180 181 180 179 181 172 173 177 176 178 181 183 182 188 187 193 197 199 212 210 216 215 230 231 222 217 234 256 52 327 6 297 249 233 230 243 238 229 226 225 223 227 223 224 219 223 227 236
120 135 148 162 166 172 181 177 187 185 181 178 178 180 181 179 181 182 186 185 179 179 174 175 181 185 185 187 189 190 191 203 209 210 211 214 213 216 197 348 299 222 158 207 175 227 260 278 274 256 235 237 233 234 229 221 219 226 223 224 220 223 223
110 122 139 151 154 156 163 168 181 175 172 173 178 174 177 177 182 186 186 182 181 181 179 182 184 179 180 180 179 183 187 197 208 213 217 214 212 227 142 208 222 195 204 202 218 200 224 254 253 246 256 241 235 232 233 229 223 220 226 227 225 225 232
117 120 121 129 125 134 147 149 152 145 157 166 175 175 179 180 181 187 187 186 184 187 177 181 174 171 176 176 183 185 191 193 205 207 213 209 171 6 69 179 200 206 210 210 213 215 215 223 233 241 239 258 242 235 234 233 229 226 223 223 227 227 226
111 118 124 126 130 133 142 153 158 159 166 169 176 177 180 180 181 187 189 186 186 183 184 188 180 174 172 171 170 180 188 191 194 199 199 202 145 176 196 187 183 208 212 205 209 212 217 218 227 229 222 229 239 235 231 231 232 230 231 229 224 227 230
123 119 117 117 124 132 142 146 153 163 168 172 175 177 178 179 182 186 187 186 182 184 190 191 180 172 164 170 173 181 190 196 197 198 196 198 171 179 186 166 186 204 210 208 206 209 215 224 224 224 222 226 232 235 227 227 230 230 232 233 231 228 228
119 117 121 121 121 121 124 139 144 150 155 164 168 171 171 173 176 180 181 183 183 187 187 183 177 167 165 172 186 190 197 202 202 207 169 195 195 197 186 178 187 195 203 208 212 211 218 223 232 232 230 232 235 238 235 227 226 228 226 231 236 236 230
118 119 116 119 120 124 126 129 135 145 150 153 158 160 161 170 171 175 181 180 184 186 194 197 180 170 173 189 199 200 199 205 203 195 187 194 205 206 201 201 210 212 214 214 219 223 225 229 233 236 239 238 235 232 237 239 231 225 227 226 229 234 234
127 128 127 120 117 118 129 133 139 143 146 148 151 156 156 160 165 169 176 184 190 190 198 194 193 187 183 192 198 202 200 208 197 201 198 198 206 200 190 197 215 222 225 225 225 229 233 235 237 242 243 244 246 248 250 246 242 234 225 224 226 232 235
131 129 128 124 123 125 128 135 140 143 143 146 152 151 154 159 163 166 174 179 180 189 194 187 188 188 182 182 193 190 189 194 202 199 194 182 207 218 213 211 213 217 220 224 226 229 232 234 237 240 240 239 243 243 244 250 259 257 249 241 237 228 236
132 130 123 121 128 132 136 140 140 140 142 144 146 146 144 150 156 161 160 161 167 177 175 181 189 195 180 183 184 187 184 190 198 199 203 207 218 217 222 223 212 215 216 219 223 229 231 232 234 236 240 243 243 241 242 239 235 326 298 247 259 257 242
132 131 130 132 137 141 145 144 141 139 136 133 131 132 136 135 139 146 149 149 145 153 161 182 193 193 190 178 190 181 189 200 203 199 204 214 229 229 231 219 214 211 213 215 219 224 225 226 224 227 230 232 238 243 247 251 64 58 39 356 330 300 274
134 135 138 144 147 150 144 135 128 124 120 120 121 121 122 124 133 135 132 138 138 147 160 173 182 178 184 181 184 188 192 198 211 191 170 204 230 244 213 214 215 214 214 215 216 217 218 216 216 217 220 225 228 234 236 240 254 254 213 181 195 218 260
133 138 145 149 146 136 125 121 121 112 105 105 112 115 116 119 126 130 134 138 144 149 156 158 160 172 177 181 183 179 151 99 66 205 196 228 231 217 221 214 213 213 211 214 210 214 219 217 218 222 222 225 225 228 232 235 227 218 220 217 218 220 224
138 146 146 144 138 129 120 116 110 106 102 104 112 120 125 125 125 128 133 142 148 153 156 162 155 163 155 161 152 150 155 168 141 222 205 225 222 223 228 218 215 213 211 213 213 213 217 221 222 225 228 227 231 231 236 236 203 201 210 218 221 221 220
147 151 148 141 132 123 127 124 121 119 112 115 122 125 132 126 125 131 132 138 143 146 148 138 143 146 150 98 80 133 157 156 163 178 186 197 219 226 220 216 213 209 199 213 217 216 218 222 227 226 230 233 238 241 241 259 169 199 208 223 233 219 235
150 147 137 132 130 129 124 125 125 119 124 124 119 123 124 122 124 126 133 134 129 128 122 119 102 81 106 124 155 182 195 184 165 186 175 184 189 198 197 203 200 203 202 207 211 213 215 224 224 228 235 238 237 241 249 257 161 181 196 227 240 226 246
137 133 134 126 121 122 126 123 121 126 127 123 121 120 120 119 122 129 131 129 124 122 122 129 129 145 146 161 161 180 200 192 184 173 174 175 185 188 193 198 201 199 196 213 208 220 223 229 235 237 244 244 249 245 251 252 175 174 176 188 182 233 247
135 133 128 129 131 130 126 127 124 123 124 125 118 124 126 123 130 132 131 131 132 136 139 147 145 154 162 166 169 187 174 178 172 163 169 177 174 181 178 189 201 192 207 220 223 219 223 222 227 226 237 250 268 283 269 265 203 167 182 191 192 223 252
135 134 135 132 128 122 117 118 126 129 124 119 119 129 127 135 137 131 134 137 140 145 140 139 141 143 142 140 139 141 138 141 158 164 168 155 139 149 160 154 162 165 190 182 204 207 210 221 219 215 207 202 225 208 230 250 276 148 172 206 230 245 254
132 133 132 129 121 125 129 135 130 123 124 125 129 129 135 133 129 131 128 133 139 134 130 127 126 130 137 143 143 143 144 145 147 145 136 132 140 140 144 158 160 168 167 173 187 183 209 215 234 249 252 258 251 264 266 276 293 157 182 171 219 234 240
132 130 122 118 128 134 131 126 123 125 121 128 135 135 139 139 128 129 139 146 133 124 126 132 132 127 128 132 133 133 134 133 138 134 124 123 143 144 137 132 168 165 153 156 188 184 189 170 186 203 183 235 253 283 281 133 190 288 124 112 110 354 240
131 130 129 131 136 132 131 131 134 128 131 139 139 141 145 137 135 139 147 128 116 121 125 126 128 132 133 132 133 133 132 135 138 135 134 149 158 153 142 164 163 155 162 168 168 173 170 182 193 208 224 236 248 263 261 278 163 34 91 96 93 90 159
130 131 138 139 135 138 137 130 124 124 127 125 129 139 138 135 135 138 129 115 114 116 119 121 125 129 126 125 125 127 122 128 138 137 142 149 154 143 151 155 158 171 179 183 187 187 194 197 205 229 256 278 291 286 290 37 291 78 66 60 56 51 44
140 142 141 140 137 137 137 132 130 129 130 129 131 125 121 125 121 120 112 108 116 114 110 113 121 124 124 120 120 126 126 124 114 120 125 135 139 141 146 154 170 165 171 186 193 197 215 225 206 237 249 326 340 4 288 78 126 76 89 99 101 76 57
141 140 140 136 135 135 127 128 130 130 128 129 126 122 124 122 121 115 111 119 117 116 114 117 111 110 116 121 123 131 133 138 126 117 123 137 139 153 165 163 188 169 178 207 204 216 229 245 256 265 297 40 351 350 351 330 192 151 147 164 182 186 179
141 143 143 141 131 130 134 136 133 131 129 127 127 120 113 105 105 107 116 121 118 112 108 106 110 109 105 107 109 103 93 88 92 136 147 135 169 151 168 152 237 174 213 244 244 212 220 232 231 262 244 194 345 321 308 283 285 249 171 199 290 300 184
138 137 131 126 131 137 134 133 130 129 121 114 111 109 103 97 96 97 96 105 107 107 103 85 74 91 94 105 112 105 123 118 145 254 91 72 354 358 6 127 250 281 120 5 345 322 284 270 313 324 324 313 295 300 294 282 245 248 303 320 304 301 303
129 127 129 132 135 135 129 127 121 118 115 112 109 104 96 84 80 91 96 91 89 92 91 91 90 69 77 79 87 103 103 96 111 49 49 122 139 97 23 356 350 354 355 46 9 354 337 331 294 259 303 306 303 298 300 290 332 73 47 41 33 323 324
131 133 133 132 133 127 121 120 119 114 109 108 107 104 101 97 91 80 82 88 93 91 92 90 82 82 61 43 37 44 52 40 79 94 359 325 43 128 131 84 10 356 331 64 75 51 31 7 358 11 350 316 322 38 331 342 60 82 72 62 344 320 287
134 134 134 134 129 126 124 120 116 116 116 115 115 110 106 103 100 101 97 93 90 88 90 85 85 68 78 69 53 34 350 353 22 44 76 355 344 348 327 171 160 196 169 3 96 93 124 91 88 25 359 329 308 88 76 93 103 83 75 25 280 275 266
131 130 130 128 125 123 122 122 122 119 117 115 111 104 101 95 89 87 93 84 81 81 77 67 60 47 30 25 43 55 14 358 20 355 5 353 355 303 309 308 285 149 179 200 177 150 168 210 207 174 213 254 298 310 142 137 136 142 173 272 268 263 265